Weather History for KFHU - November, 2010

Change the Weather History Date:

Wednesday, November 24, 2010

  Actual Average Record
Temperature  
Mean Temperature 48 °F -  
Max Temperature 60 °F 63 °F 77 °F (1997)
Min Temperature 37 °F 41 °F 27 °F (1983)
Degree Days  
Heating Degree Days 16    
Moisture  
Dew Point 18 °F    
Average Humidity 33    
Maximum Humidity 55    
Minimum Humidity 14    
Precipitation  
Precipitation 0.00 in - - ()
Sea Level Pressure  
Sea Level Pressure 29.82 in    
Wind  
Wind Speed 7 mph (WSW)    
Max Wind Speed 17 mph    
Max Gust Speed 30 mph    
Visibility 10 miles    
Events      
Averages and records for this station are not official NWS values.
T = Trace of Precipitation, MM = Missing Value Source: NWS Daily Summary

Daily Weather History Graph

Daily Weather History Graph

Search for Another Location

Airport or City:

Trip Planner

Search our weather history database for the weather conditions in past years. The results will help you decide how hot, cold, wet, or windy it might be!

Date:

Astronomy

Nov. 24, 2010 Rise Set
Actual Time 6:57 AM MST 5:18 PM MST
Civil Twilight 6:31 AM MST 5:45 PM MST
Nautical Twilight 6:01 AM MST 6:14 PM MST
Astronomical Twilight 5:32 AM MST 6:43 PM MST
Moon 8:12 PM MST (11/24) 9:43 AM MST (11/24)
Length of Visible Light 11h 14m
Length of Day
10h 21m
Waning Gibbous, 90% of the Moon is Illuminated
Nov 24
Waning Gibbous
Nov 28
Last Quarter
Dec 5
New
Dec 13
First Quarter
Dec 21
Full

Hourly Weather History & Observations

Time (MST) Temp. Windchill Dew Point Humidity Pressure Visibility Wind Dir Wind Speed Gust Speed Precip Events Conditions
12:56 AM 48.9 °F - 21.0 °F 33% 29.83 in 10.0 mi WSW 8.1 mph - N/A   Clear
1:56 AM 44.1 °F - 21.0 °F 40% 29.84 in 10.0 mi Calm Calm - N/A   Clear
2:56 AM 44.1 °F 39.0 °F 23.0 °F 43% 29.84 in 10.0 mi SW 9.2 mph - N/A   Clear
3:56 AM 41.0 °F 36.4 °F 21.0 °F 45% 29.84 in 10.0 mi West 6.9 mph - N/A   Clear
4:56 AM 46.0 °F - 18.0 °F 33% 29.83 in 10.0 mi Calm Calm - N/A   Clear
5:55 AM 39.2 °F - 19.4 °F 45% 29.87 in 10.0 mi ENE 1.2 mph - N/A   Scattered Clouds
6:55 AM 37.4 °F 34.9 °F 19.4 °F 48% 29.88 in 50.0 mi South 3.5 mph - N/A   Scattered Clouds
7:55 AM 42.8 °F - 21.2 °F 42% 29.88 in 50.0 mi Variable 1.2 mph - N/A   Mostly Cloudy
8:55 AM 46.4 °F 44.3 °F 19.4 °F 34% 29.87 in 50.0 mi Variable 4.6 mph - N/A   Mostly Cloudy
9:55 AM 48.2 °F - 19.4 °F 32% 29.89 in 50.0 mi East 5.8 mph - N/A   Mostly Cloudy
10:55 AM 55.4 °F - 14.0 °F 20% 29.83 in 50.0 mi Calm Calm - N/A   Mostly Cloudy
11:55 AM 60.8 °F - 10.4 °F 14% 29.79 in 50.0 mi WSW 16.1 mph 20.7 mph N/A   Mostly Cloudy
12:55 PM 60.8 °F - 10.4 °F 14% 29.77 in 50.0 mi WSW 15.0 mph 23.0 mph N/A   Scattered Clouds
1:55 PM 60.8 °F - 12.2 °F 15% 29.75 in 50.0 mi West 17.3 mph 29.9 mph N/A   Scattered Clouds
2:55 PM 60.8 °F - 14.0 °F 16% 29.73 in 50.0 mi West 16.1 mph 25.3 mph N/A   Scattered Clouds
3:55 PM 59.0 °F - 12.2 °F 16% 29.75 in 50.0 mi West 12.7 mph - N/A   Scattered Clouds
4:55 PM 55.4 °F - 10.4 °F 17% 29.75 in 50.0 mi WSW 13.8 mph - N/A   Scattered Clouds
5:55 PM 50.0 °F - 14.0 °F 24% 29.78 in 35.0 mi West 9.2 mph - N/A   Partly Cloudy
6:55 PM 44.6 °F 41.4 °F 15.8 °F 31% 29.79 in 10.0 mi Variable 5.8 mph - N/A   Partly Cloudy
7:55 PM 42.8 °F 38.6 °F 19.4 °F 39% 29.82 in 10.0 mi WNW 6.9 mph - N/A   Partly Cloudy
8:55 PM 42.8 °F 37.5 °F 21.2 °F 42% 29.81 in 10.0 mi West 9.2 mph - N/A   Partly Cloudy
9:55 PM 42.8 °F 39.3 °F 21.2 °F 42% 29.82 in 10.0 mi Variable 5.8 mph - N/A   Partly Cloudy
10:55 PM 39.2 °F 35.9 °F 19.4 °F 45% 29.82 in 10.0 mi Variable 4.6 mph - N/A   Partly Cloudy
11:56 PM 37.9 °F 33.5 °F 23.0 °F 55% 29.80 in 10.0 mi WSW 5.8 mph - N/A   Clear